Retour au catalogue

CZ-4B DEB

ActifSSO
NORAD 36290·DEBRIS·🇨🇳 China

Lancé Oct 25, 2008 depuis Taiyuan Satellite Launch Center

Loading…

Prochains Passages (prochaines 24 heures)

TLE

FraisSource: Space-Track

Époque: Sep 13, 2026, 19:01 UTC

1 36290U 08053L   26256.79250240  .00001607  00000-0  10133-3 0  9991
2 36290  97.7780 279.4333 0008034 327.2129  32.8601 15.10593262742638

Suivez CZ-4B DEB en temps réel avec AllMySat

Download on the App Store